| time (UTC) | temp F | wind direction | speed knots | gust knots | rain 1hr in | rain 24hr in | rain mn in | humidity % | barometer mb |
| 20260506024905 | 49 | 58 | 7.8 | 14.8 | 0.00 | 0.00 | 0.00 | 85 | 1011.4 |
| 20260506024402 | 50 | 20 | 9.6 | 12.2 | 0.00 | 0.00 | 0.00 | 85 | 1011.4 |
| 20260506023857 | 49 | 20 | 4.3 | 13.0 | 0.00 | 0.00 | 0.00 | 85 | 1010.8 |
| 20260506023355 | 49 | 73 | 8.7 | 12.2 | 0.00 | 0.00 | 0.00 | 85 | 1011.2 |
| 20260506022851 | 49 | 354 | 4.3 | 14.8 | 0.00 | 0.00 | 0.00 | 85 | 1011.4 |
| 20260506022349 | 49 | 36 | 8.7 | 12.2 | 0.00 | 0.00 | 0.00 | 86 | 1011.0 |
| 20260506021842 | 49 | 14 | 7.8 | 11.3 | 0.00 | 0.00 | 0.00 | 86 | 1011.2 |
| 20260506021338 | 50 | 0 | 5.2 | 9.6 | 0.00 | 0.00 | 0.00 | 85 | 1011.2 |
| 20260506020835 | 50 | 352 | 7.8 | 11.3 | 0.00 | 0.00 | 0.00 | 84 | 1011.4 |
| 20260506020333 | 50 | 43 | 4.3 | 9.6 | 0.00 | 0.00 | 0.00 | 84 | 1011.1 |
| 20260506015830 | 50 | 344 | 5.2 | 13.0 | 0.00 | 0.00 | 0.00 | 84 | 1011.1 |
| 20260506015328 | 50 | 359 | 7.8 | 13.9 | 0.00 | 0.00 | 0.00 | 83 | 1011.1 |
| 20260506014824 | 50 | 333 | 7.0 | 9.6 | 0.00 | 0.00 | 0.00 | 83 | 1011.0 |
| 20260506014321 | 50 | 358 | 4.3 | 7.8 | 0.00 | 0.00 | 0.00 | 84 | 1010.7 |
| 20260506013818 | 50 | 287 | 3.5 | 9.6 | 0.00 | 0.00 | 0.00 | 83 | 1010.6 |
| 20260506013315 | 50 | 327 | 4.3 | 7.0 | 0.00 | 0.00 | 0.00 | 84 | 1010.8 |
| 20260506012812 | 50 | 23 | 7.0 | 13.0 | 0.00 | 0.00 | 0.00 | 84 | 1010.5 |
| 20260506012309 | 50 | 0 | 7.8 | 12.2 | 0.00 | 0.00 | 0.00 | 83 | 1010.7 |
| 20260506011806 | 50 | 30 | 4.3 | 9.6 | 0.00 | 0.00 | 0.00 | 83 | 1010.7 |
| 20260506011302 | 50 | 6 | 7.0 | 9.6 | 0.00 | 0.00 | 0.00 | 83 | 1010.7 |
| 20260506010800 | 50 | 38 | 7.0 | 13.9 | 0.00 | 0.00 | 0.00 | 83 | 1010.7 |
| 20260506010257 | 51 | 6 | 2.6 | 8.7 | 0.00 | 0.00 | 0.00 | 83 | 1010.5 |
| 20260506005754 | 51 | 20 | 2.6 | 8.7 | 0.00 | 0.00 | 0.00 | 82 | 1010.6 |
| 20260506005251 | 50 | 44 | 7.0 | 12.2 | 0.00 | 0.00 | 0.00 | 82 | 1010.3 |
| 20260506004746 | 51 | 21 | 7.8 | 11.3 | 0.00 | 0.00 | 0.00 | 82 | 1010.1 |
| 20260506004245 | 51 | 343 | 7.8 | 12.2 | 0.00 | 0.00 | 0.00 | 81 | 1010.0 |
| 20260506003741 | 51 | 5 | 6.1 | 7.8 | 0.00 | 0.00 | 0.00 | 82 | 1010.2 |
| 20260506003237 | 51 | 37 | 5.2 | 7.8 | 0.00 | 0.00 | 0.00 | 81 | 1009.9 |
| 20260506002734 | 51 | 43 | 4.3 | 7.0 | 0.00 | 0.00 | 0.00 | 80 | 1009.9 |
| 20260506002229 | 51 | 0 | 4.3 | 7.0 | 0.00 | 0.00 | 0.00 | 80 | 1009.9 |
| 20260506001726 | 51 | 345 | 7.0 | 12.2 | 0.00 | 0.00 | 0.00 | 80 | 1009.6 |
| 20260506001224 | 51 | 68 | 7.0 | 12.2 | 0.00 | 0.00 | 0.00 | 80 | 1009.7 |
| 20260506000720 | 51 | 337 | 6.1 | 13.9 | 0.00 | 0.00 | 0.00 | 79 | 1009.7 |
| 20260506000219 | 51 | 352 | 5.2 | 7.8 | 0.00 | 0.00 | 0.00 | 79 | 1009.8 |
| 20260505235715 | 52 | 51 | 7.0 | 13.0 | 0.00 | 0.00 | 0.00 | 79 | 1009.6 |
| 20260505235212 | 52 | 30 | 4.3 | 9.6 | 0.00 | 0.00 | 0.00 | 79 | 1009.5 |
| 20260505234709 | 52 | 9 | 9.6 | 17.4 | 0.00 | 0.00 | 0.00 | 79 | 1009.8 |
| 20260505234207 | 52 | 67 | 5.2 | 13.9 | 0.00 | 0.00 | 0.00 | 80 | 1009.4 |
| 20260505233703 | 52 | 10 | 5.2 | 11.3 | 0.00 | 0.00 | 0.00 | 79 | 1009.6 |
| 20260505233201 | 52 | 14 | 4.3 | 12.2 | 0.00 | 0.00 | 0.00 | 79 | 1009.9 |
| 20260505232658 | 52 | 339 | 7.8 | 13.0 | 0.00 | 0.00 | 0.00 | 79 | 1009.2 |
| 20260505232155 | 52 | 3 | 7.8 | 9.6 | 0.00 | 0.00 | 0.00 | 78 | 1009.4 |
| 20260505231652 | 52 | 24 | 7.0 | 11.3 | 0.00 | 0.00 | 0.00 | 78 | 1009.6 |
| 20260505231151 | 53 | 1 | 5.2 | 9.6 | 0.00 | 0.00 | 0.00 | 77 | 1009.7 |
| 20260505230648 | 53 | 25 | 9.6 | 12.2 | 0.00 | 0.00 | 0.00 | 77 | 1009.9 |
| 20260505230144 | 53 | 340 | 4.3 | 8.7 | 0.00 | 0.00 | 0.00 | 78 | 1009.7 |
| 20260505225635 | 53 | 60 | 7.0 | 11.3 | 0.00 | 0.00 | 0.00 | 77 | 1010.0 |
| 20260505225132 | 53 | 88 | 4.3 | 9.6 | 0.00 | 0.00 | 0.00 | 78 | 1009.6 |
| 20260505224628 | 53 | 344 | 7.8 | 12.2 | 0.00 | 0.00 | 0.00 | 77 | 1009.5 |
| 20260505224126 | 53 | 2 | 7.8 | 13.9 | 0.00 | 0.00 | 0.00 | 78 | 1009.2 |
| 20260505223623 | 54 | 31 | 4.3 | 8.7 | 0.00 | 0.00 | 0.00 | 77 | 1009.3 |
| 20260505223119 | 53 | 26 | 2.6 | 7.0 | 0.00 | 0.00 | 0.00 | 77 | 1009.7 |
| 20260505222616 | 53 | 352 | 6.1 | 8.7 | 0.00 | 0.00 | 0.00 | 77 | 1009.4 |
| 20260505222112 | 53 | 34 | 3.5 | 12.2 | 0.00 | 0.00 | 0.00 | 78 | 1009.1 |
| 20260505221609 | 53 | 26 | 7.8 | 13.0 | 0.00 | 0.00 | 0.00 | 78 | 1009.4 |
| 20260505221105 | 53 | 358 | 5.2 | 13.0 | 0.00 | 0.00 | 0.00 | 77 | 1009.1 |
| 20260505220603 | 54 | 35 | 6.1 | 12.2 | 0.00 | 0.00 | 0.00 | 76 | 1009.2 |
| 20260505220100 | 54 | 49 | 6.1 | 9.6 | 0.00 | 0.00 | 0.00 | 76 | 1009.0 |
| 20260505215558 | 54 | 107 | 3.5 | 9.6 | 0.00 | 0.00 | 0.00 | 76 | 1009.2 |
| 20260505215055 | 55 | 357 | 7.8 | 13.0 | 0.00 | 0.00 | 0.00 | 75 | 1008.8 |
| 20260505214553 | 54 | 55 | 4.3 | 9.6 | 0.00 | 0.00 | 0.00 | 77 | 1008.5 |
| 20260505214049 | 54 | 345 | 6.1 | 12.2 | 0.00 | 0.00 | 0.00 | 77 | 1008.5 |
| 20260505213548 | 54 | 15 | 7.8 | 13.9 | 0.00 | 0.00 | 0.00 | 77 | 1008.3 |
| 20260505213044 | 54 | 2 | 6.1 | 11.3 | 0.00 | 0.00 | 0.00 | 78 | 1008.5 |
| 20260505212540 | 54 | 86 | 4.3 | 13.0 | 0.00 | 0.00 | 0.00 | 77 | 1008.8 |
| 20260505212038 | 55 | 7 | 6.1 | 8.7 | 0.00 | 0.00 | 0.00 | 77 | 1008.3 |
| 20260505211534 | 55 | 13 | 5.2 | 7.0 | 0.00 | 0.00 | 0.00 | 77 | 1008.6 |
| 20260505211031 | 55 | 22 | 6.1 | 9.6 | 0.00 | 0.00 | 0.00 | 78 | 1008.1 |
| 20260505210528 | 54 | 21 | 7.0 | 13.0 | 0.00 | 0.00 | 0.00 | 77 | 1007.6 |
| 20260505210025 | 54 | 347 | 10.4 | 18.2 | 0.00 | 0.00 | 0.00 | 77 | 1007.8 |
| 20260505205523 | 55 | 22 | 7.8 | 19.1 | 0.00 | 0.00 | 0.00 | 77 | 1007.4 |
| 20260505205020 | 55 | 15 | 9.6 | 17.4 | 0.00 | 0.00 | 0.00 | 77 | 1007.4 |
| 20260505204518 | 55 | 14 | 10.4 | 13.0 | 0.00 | 0.00 | 0.00 | 77 | 1008.3 |
| 20260505204015 | 55 | 354 | 8.7 | 17.4 | 0.00 | 0.00 | 0.00 | 78 | 1007.9 |
| 20260505203511 | 55 | 338 | 6.1 | 9.6 | 0.00 | 0.00 | 0.00 | 78 | 1008.1 |
| 20260505203008 | 55 | 46 | 8.7 | 13.9 | 0.00 | 0.00 | 0.00 | 79 | 1008.2 |
| 20260505202504 | 55 | 0 | 7.8 | 12.2 | 0.00 | 0.00 | 0.00 | 79 | 1008.4 |
| 20260505202000 | 54 | 344 | 8.7 | 13.0 | 0.00 | 0.00 | 0.00 | 80 | 1008.0 |
| 20260505201457 | 54 | 35 | 5.2 | 7.0 | 0.00 | 0.00 | 0.00 | 80 | 1008.6 |
| 20260505200955 | 54 | 359 | 5.2 | 9.6 | 0.00 | 0.00 | 0.00 | 81 | 1008.2 |
| 20260505200453 | 54 | 3 | 7.0 | 11.3 | 0.00 | 0.00 | 0.00 | 81 | 1008.2 |
| 20260505195948 | 54 | 9 | 10.4 | 14.8 | 0.00 | 0.00 | 0.00 | 81 | 1008.1 |
| 20260505195446 | 55 | 350 | 6.1 | 14.8 | 0.00 | 0.00 | 0.00 | 80 | 1007.8 |
| 20260505194943 | 54 | 28 | 7.8 | 13.0 | 0.00 | 0.00 | 0.00 | 81 | 1007.5 |
| 20260505194440 | 54 | 65 | 13.0 | 17.4 | 0.00 | 0.00 | 0.00 | 82 | 1007.8 |
| 20260505193940 | 55 | 297 | 7.0 | 13.0 | 0.00 | 0.00 | 0.00 | 82 | 1007.9 |
| 20260505193438 | 55 | 348 | 9.6 | 12.2 | 0.00 | 0.00 | 0.00 | 82 | 1007.6 |
| 20260505192935 | 55 | 356 | 5.2 | 12.2 | 0.00 | 0.00 | 0.00 | 83 | 1007.6 |
| 20260505192434 | 55 | 64 | 8.7 | 12.2 | 0.00 | 0.00 | 0.00 | 83 | 1007.9 |
| 20260505191931 | 55 | 7 | 4.3 | 11.3 | 0.00 | 0.00 | 0.00 | 82 | 1007.6 |
| 20260505191430 | 55 | 323 | 5.2 | 8.7 | 0.00 | 0.00 | 0.00 | 83 | 1007.9 |
| 20260505190926 | 56 | 356 | 6.1 | 11.3 | 0.00 | 0.00 | 0.00 | 83 | 1007.8 |
| 20260505190421 | 56 | 356 | 7.0 | 15.6 | 0.00 | 0.00 | 0.00 | 83 | 1007.8 |
| 20260505185916 | 56 | 11 | 4.3 | 11.3 | 0.00 | 0.00 | 0.00 | 82 | 1007.7 |
| 20260505185414 | 56 | 341 | 13.0 | 20.0 | 0.00 | 0.00 | 0.00 | 82 | 1007.4 |
| 20260505184910 | 57 | 352 | 6.1 | 13.9 | 0.00 | 0.00 | 0.00 | 81 | 1007.0 |
| 20260505184407 | 57 | 308 | 7.0 | 14.8 | 0.00 | 0.00 | 0.00 | 81 | 1007.2 |
| 20260505183904 | 57 | 9 | 4.3 | 13.0 | 0.00 | 0.00 | 0.00 | 81 | 1007.4 |
| 20260505183401 | 57 | 50 | 5.2 | 13.0 | 0.00 | 0.00 | 0.00 | 81 | 1007.5 |
| 20260505182857 | 57 | 9 | 7.0 | 11.3 | 0.00 | 0.00 | 0.00 | 81 | 1007.4 |
| 20260505182354 | 57 | 16 | 7.0 | 8.7 | 0.00 | 0.00 | 0.00 | 80 | 1007.4 |
| 20260505181851 | 57 | 1 | 7.0 | 12.2 | 0.00 | 0.00 | 0.00 | 82 | 1007.1 |
| 20260505181348 | 57 | 26 | 5.2 | 13.0 | 0.00 | 0.00 | 0.00 | 82 | 1007.2 |
| 20260505180845 | 57 | 52 | 8.7 | 13.0 | 0.00 | 0.00 | 0.00 | 82 | 1007.1 |
| 20260505180341 | 57 | 21 | 9.6 | 14.8 | 0.00 | 0.00 | 0.00 | 83 | 1007.1 |
| 20260505175838 | 57 | 348 | 8.7 | 17.4 | 0.00 | 0.00 | 0.00 | 83 | 1006.9 |
| 20260505175334 | 57 | 359 | 6.1 | 14.8 | 0.00 | 0.00 | 0.00 | 83 | 1006.9 |
| 20260505174831 | 58 | 39 | 7.8 | 13.9 | 0.00 | 0.00 | 0.00 | 82 | 1006.8 |
| 20260505174329 | 57 | 19 | 8.7 | 14.8 | 0.00 | 0.00 | 0.00 | 83 | 1006.5 |
| 20260505173824 | 57 | 27 | 7.0 | 13.9 | 0.00 | 0.00 | 0.00 | 84 | 1006.4 |
| 20260505173320 | 57 | 83 | 9.6 | 15.6 | 0.00 | 0.00 | 0.00 | 84 | 1006.6 |
| 20260505172819 | 58 | 356 | 5.2 | 13.9 | 0.00 | 0.00 | 0.00 | 85 | 1006.6 |
| 20260505172316 | 58 | 32 | 6.1 | 9.6 | 0.00 | 0.00 | 0.00 | 84 | 1006.8 |
| 20260505171815 | 58 | 12 | 4.3 | 7.0 | 0.00 | 0.00 | 0.00 | 85 | 1006.3 |
| 20260505171313 | 58 | 351 | 4.3 | 11.3 | 0.00 | 0.00 | 0.00 | 85 | 1006.6 |
| 20260505170809 | 58 | 22 | 2.6 | 7.0 | 0.00 | 0.00 | 0.00 | 85 | 1006.3 |
| 20260505170306 | 58 | 336 | 6.1 | 9.6 | 0.00 | 0.00 | 0.00 | 85 | 1006.4 |
| 20260505165801 | 58 | 351 | 3.5 | 13.9 | 0.00 | 0.00 | 0.00 | 85 | 1006.0 |
| 20260505165257 | 58 | 337 | 7.8 | 12.2 | 0.00 | 0.00 | 0.00 | 85 | 1005.8 |
| 20260505164753 | 58 | 42 | 5.2 | 12.2 | 0.00 | 0.00 | 0.00 | 85 | 1005.7 |
| 20260505164250 | 58 | 353 | 6.1 | 12.2 | 0.00 | 0.00 | 0.00 | 85 | 1005.7 |
| 20260505163749 | 58 | 356 | 4.3 | 11.3 | 0.00 | 0.00 | 0.00 | 85 | 1005.5 |
| 20260505163247 | 59 | 334 | 8.7 | 11.3 | 0.00 | 0.00 | 0.00 | 86 | 1005.6 |
| 20260505162744 | 58 | 334 | 6.1 | 11.3 | 0.00 | 0.00 | 0.00 | 85 | 1005.4 |
| 20260505162241 | 59 | 337 | 7.0 | 9.6 | 0.00 | 0.00 | 0.00 | 85 | 1005.2 |
| 20260505161737 | 59 | 356 | 3.5 | 8.7 | 0.00 | 0.00 | 0.00 | 85 | 1005.2 |
| 20260505161235 | 59 | 357 | 2.6 | 11.3 | 0.00 | 0.00 | 0.00 | 87 | 1005.0 |
| 20260505160732 | 60 | 356 | 7.0 | 12.2 | 0.00 | 0.00 | 0.00 | 87 | 1004.7 |
| 20260505160230 | 59 | 352 | 4.3 | 14.8 | 0.00 | 0.00 | 0.00 | 87 | 1004.8 |
| 20260505153209 | 61 | 43 | 7.8 | 11.3 | 0.00 | 0.00 | 0.00 | 87 | 1003.3 |
| 20260505152706 | 61 | 358 | 4.3 | 13.9 | 0.00 | 0.00 | 0.00 | 87 | 1003.7 |
| 20260505152202 | 62 | 357 | 4.3 | 12.2 | 0.00 | 0.00 | 0.00 | 87 | 1003.2 |
| 20260505151657 | 62 | 331 | 5.2 | 13.0 | 0.00 | 0.00 | 0.00 | 87 | 1003.2 |
| 20260505151156 | 63 | 6 | 4.3 | 13.0 | 0.00 | 0.00 | 0.00 | 86 | 1003.1 |
| 20260505150651 | 69 | 327 | 6.1 | 12.2 | 0.00 | 0.00 | 0.00 | 87 | 1003.1 |
| 20260505150148 | 69 | 359 | 1.7 | 6.1 | 0.00 | 0.00 | 0.00 | 87 | 1002.6 |
| 20260505140617 | 71 | 344 | 0.9 | 0.9 | 0.00 | 0.00 | 0.00 | 81 | 1001.8 |
| 20260505140114 | 70 | 2 | 0.0 | 0.9 | 0.00 | 0.00 | 0.00 | 81 | 1001.7 |
| 20260505125030 | 69 | 335 | 0.0 | 0.0 | 0.00 | 0.00 | 0.00 | 86 | 1001.4 |
| 20260505124527 | 69 | 329 | 0.9 | 1.7 | 0.00 | 0.00 | 0.00 | 85 | 1001.3 |
| 20260505124023 | 69 | 331 | 0.0 | 0.9 | 0.00 | 0.00 | 0.00 | 84 | 1001.2 |
| 20260505123520 | 69 | 339 | 1.7 | 2.6 | 0.00 | 0.00 | 0.00 | 84 | 1001.1 |
| 20260505123016 | 69 | 216 | 2.6 | 7.0 | 0.00 | 0.00 | 0.00 | 84 | 1000.7 |
| 20260505122513 | 69 | 230 | 3.5 | 6.1 | 0.00 | 0.00 | 0.00 | 84 | 1000.7 |
| 20260505122010 | 69 | 218 | 6.1 | 8.7 | 0.00 | 0.00 | 0.00 | 83 | 1000.3 |
| 20260505121506 | 69 | 218 | 3.5 | 7.8 | 0.00 | 0.00 | 0.00 | 84 | 1000.5 |
| 20260505121003 | 68 | 214 | 4.3 | 5.2 | 0.00 | 0.00 | 0.00 | 84 | 1000.3 |
| 20260505120459 | 69 | 235 | 2.6 | 5.2 | 0.00 | 0.00 | 0.00 | 84 | 1000.2 |
| 20260505115958 | 68 | 214 | 4.3 | 7.8 | 0.00 | 0.00 | 0.00 | 84 | 1000.0 |
| 20260505115454 | 69 | 201 | 3.5 | 6.1 | 0.00 | 0.00 | 0.00 | 84 | 1000.3 |
| 20260505114953 | 69 | 251 | 3.5 | 6.1 | 0.00 | 0.00 | 0.00 | 84 | 1000.0 |
| 20260505114449 | 69 | 207 | 2.6 | 7.8 | 0.00 | 0.00 | 0.00 | 83 | 999.8 |
| 20260505113946 | 69 | 183 | 6.1 | 7.8 | 0.00 | 0.00 | 0.00 | 84 | 999.9 |
| 20260505113442 | 69 | 174 | 2.6 | 7.8 | 0.00 | 0.00 | 0.00 | 83 | 999.8 |
| 20260505112937 | 69 | 239 | 5.2 | 7.0 | 0.00 | 0.00 | 0.00 | 83 | 999.4 |
| 20260505112435 | 69 | 182 | 5.2 | 11.3 | 0.00 | 0.00 | 0.00 | 82 | 999.6 |
| 20260505111932 | 69 | 214 | 7.0 | 8.7 | 0.00 | 0.00 | 0.00 | 82 | 999.5 |
| 20260505111426 | 69 | 217 | 6.1 | 7.8 | 0.00 | 0.00 | 0.00 | 82 | 999.5 |
| 20260505110923 | 69 | 221 | 4.3 | 8.7 | 0.00 | 0.00 | 0.00 | 82 | 999.5 |
| 20260505110420 | 69 | 227 | 7.8 | 12.2 | 0.00 | 0.00 | 0.00 | 82 | 999.3 |
| 20260505101850 | 71 | 225 | 6.1 | 11.3 | 0.00 | 0.00 | 0.00 | 80 | 999.2 |
| 20260505101345 | 71 | 216 | 4.3 | 9.6 | 0.00 | 0.00 | 0.00 | 80 | 999.3 |
| 20260505100841 | 71 | 217 | 6.1 | 13.0 | 0.00 | 0.00 | 0.00 | 80 | 999.3 |
| 20260505100338 | 71 | 221 | 9.6 | 13.9 | 0.00 | 0.00 | 0.00 | 79 | 999.2 |
| 20260505095834 | 71 | 191 | 7.0 | 15.6 | 0.00 | 0.00 | 0.00 | 79 | 999.2 |
| 20260505095332 | 71 | 206 | 7.8 | 12.2 | 0.00 | 0.00 | 0.00 | 80 | 999.3 |
| 20260505094827 | 71 | 210 | 8.7 | 12.2 | 0.00 | 0.00 | 0.00 | 79 | 999.3 |
| 20260505094325 | 71 | 184 | 8.7 | 11.3 | 0.00 | 0.00 | 0.00 | 80 | 999.5 |
| 20260505093820 | 71 | 206 | 9.6 | 13.0 | 0.00 | 0.00 | 0.00 | 80 | 999.3 |
| 20260505093318 | 71 | 207 | 6.1 | 9.6 | 0.00 | 0.00 | 0.00 | 80 | 999.0 |
| 20260505092814 | 71 | 211 | 8.7 | 12.2 | 0.00 | 0.00 | 0.00 | 80 | 999.2 |
| 20260505092313 | 71 | 203 | 6.1 | 12.2 | 0.00 | 0.00 | 0.00 | 80 | 999.1 |
| 20260505091810 | 71 | 208 | 7.8 | 12.2 | 0.00 | 0.00 | 0.00 | 80 | 999.2 |
| 20260505091308 | 71 | 197 | 7.8 | 11.3 | 0.00 | 0.00 | 0.00 | 80 | 999.1 |
| 20260505090806 | 71 | 196 | 7.8 | 8.7 | 0.00 | 0.00 | 0.00 | 80 | 999.5 |
| 20260505090304 | 71 | 191 | 6.1 | 8.7 | 0.00 | 0.00 | 0.00 | 80 | 999.3 |
| 20260505085801 | 72 | 195 | 7.0 | 9.6 | 0.00 | 0.00 | 0.00 | 79 | 999.5 |
| 20260505085259 | 72 | 212 | 7.8 | 11.3 | 0.00 | 0.00 | 0.00 | 79 | 999.5 |
| 20260505084756 | 72 | 229 | 7.0 | 12.2 | 0.00 | 0.00 | 0.00 | 79 | 999.6 |
| 20260505084255 | 72 | 181 | 6.1 | 11.3 | 0.00 | 0.00 | 0.00 | 79 | 999.5 |
| 20260505083751 | 72 | 215 | 9.6 | 12.2 | 0.00 | 0.00 | 0.00 | 79 | 999.4 |
| 20260505083248 | 72 | 217 | 7.8 | 9.6 | 0.00 | 0.00 | 0.00 | 78 | 999.5 |
| 20260505082744 | 72 | 196 | 7.8 | 11.3 | 0.00 | 0.00 | 0.00 | 79 | 999.5 |
| 20260505082242 | 72 | 203 | 7.0 | 13.0 | 0.00 | 0.00 | 0.00 | 79 | 999.7 |
| 20260505081737 | 72 | 191 | 7.0 | 8.7 | 0.00 | 0.00 | 0.00 | 79 | 999.8 |
| 20260505081235 | 72 | 183 | 10.4 | 12.2 | 0.00 | 0.00 | 0.00 | 79 | 999.7 |
| 20260505080732 | 72 | 222 | 9.6 | 15.6 | 0.00 | 0.00 | 0.00 | 80 | 999.8 |
| 20260505080227 | 71 | 186 | 7.8 | 11.3 | 0.00 | 0.00 | 0.00 | 80 | 999.9 |
| 20260505075723 | 72 | 188 | 6.1 | 7.8 | 0.00 | 0.00 | 0.00 | 80 | 999.8 |
| 20260505075221 | 72 | 149 | 6.1 | 12.2 | 0.00 | 0.00 | 0.00 | 79 | 999.8 |
| 20260505074718 | 72 | 210 | 9.6 | 11.3 | 0.00 | 0.00 | 0.00 | 79 | 999.9 |
| 20260505074215 | 72 | 189 | 7.8 | 11.3 | 0.00 | 0.00 | 0.00 | 79 | 1000.1 |
| 20260505073712 | 72 | 210 | 4.3 | 11.3 | 0.00 | 0.00 | 0.00 | 79 | 1000.3 |
| 20260505073210 | 72 | 211 | 5.2 | 8.7 | 0.00 | 0.00 | 0.00 | 79 | 1000.2 |
| 20260505072706 | 71 | 192 | 7.0 | 11.3 | 0.00 | 0.00 | 0.00 | 80 | 1000.0 |
| 20260505072202 | 71 | 183 | 8.7 | 14.8 | 0.00 | 0.00 | 0.00 | 79 | 1000.1 |
| 20260505071658 | 71 | 229 | 9.6 | 13.9 | 0.00 | 0.00 | 0.00 | 80 | 1000.2 |
| 20260505071155 | 71 | 180 | 7.8 | 9.6 | 0.00 | 0.00 | 0.00 | 80 | 1000.2 |
| 20260505070653 | 71 | 207 | 9.6 | 13.0 | 0.00 | 0.00 | 0.00 | 80 | 1000.4 |
| 20260505070149 | 71 | 242 | 9.6 | 13.0 | 0.00 | 0.00 | 0.00 | 80 | 1000.5 |
| 20260505065645 | 71 | 203 | 9.6 | 12.2 | 0.00 | 0.00 | 0.00 | 80 | 1000.6 |
| 20260505065142 | 71 | 195 | 6.1 | 11.3 | 0.00 | 0.00 | 0.00 | 80 | 1000.4 |
| 20260505064639 | 71 | 202 | 7.0 | 8.7 | 0.00 | 0.00 | 0.00 | 80 | 1000.8 |
| 20260505064137 | 71 | 182 | 10.4 | 15.6 | 0.00 | 0.00 | 0.00 | 79 | 1000.5 |
| 20260505063634 | 71 | 183 | 6.1 | 9.6 | 0.00 | 0.00 | 0.00 | 80 | 1000.8 |
| 20260505063130 | 71 | 221 | 7.0 | 12.2 | 0.00 | 0.00 | 0.00 | 79 | 1001.0 |
| 20260505062626 | 71 | 207 | 7.8 | 9.6 | 0.00 | 0.00 | 0.00 | 79 | 1000.8 |
| 20260505062124 | 71 | 190 | 7.0 | 14.8 | 0.00 | 0.00 | 0.00 | 79 | 1000.8 |
| 20260505061621 | 72 | 196 | 11.3 | 13.9 | 0.00 | 0.00 | 0.00 | 79 | 1001.1 |
| 20260505061119 | 72 | 185 | 7.8 | 12.2 | 0.00 | 0.00 | 0.00 | 78 | 1000.8 |
| 20260505060616 | 72 | 131 | 10.4 | 14.8 | 0.00 | 0.00 | 0.00 | 78 | 1001.1 |
| 20260505060113 | 72 | 192 | 4.3 | 9.6 | 0.00 | 0.00 | 0.00 | 79 | 1001.1 |
| 20260505055608 | 72 | 198 | 8.7 | 13.9 | 0.00 | 0.00 | 0.00 | 78 | 1001.1 |
| 20260505055105 | 72 | 223 | 7.8 | 13.0 | 0.00 | 0.00 | 0.00 | 78 | 1001.2 |
| 20260505054602 | 72 | 207 | 8.7 | 15.6 | 0.00 | 0.00 | 0.00 | 78 | 1001.2 |
| 20260505054101 | 72 | 183 | 7.0 | 12.2 | 0.00 | 0.00 | 0.00 | 77 | 1001.2 |
| 20260505053557 | 72 | 203 | 6.1 | 14.8 | 0.00 | 0.00 | 0.00 | 77 | 1001.3 |
| 20260505053054 | 72 | 189 | 11.3 | 14.8 | 0.00 | 0.00 | 0.00 | 77 | 1001.5 |
| 20260505052551 | 73 | 142 | 9.6 | 13.9 | 0.00 | 0.00 | 0.00 | 77 | 1001.3 |
| 20260505052048 | 72 | 225 | 9.6 | 13.0 | 0.00 | 0.00 | 0.00 | 77 | 1001.4 |
| 20260505051545 | 72 | 214 | 7.0 | 11.3 | 0.00 | 0.00 | 0.00 | 77 | 1001.6 |
| 20260505051043 | 73 | 188 | 5.2 | 9.6 | 0.00 | 0.00 | 0.00 | 77 | 1001.5 |
| 20260505050541 | 73 | 188 | 7.0 | 12.2 | 0.00 | 0.00 | 0.00 | 77 | 1001.7 |
| 20260505041509 | 74 | 215 | 12.2 | 14.8 | 0.00 | 0.00 | 0.00 | 74 | 1001.7 |
| 20260505041006 | 74 | 220 | 10.4 | 15.6 | 0.00 | 0.00 | 0.00 | 74 | 1001.8 |
| 20260505040503 | 74 | 201 | 10.4 | 12.2 | 0.00 | 0.00 | 0.00 | 75 | 1001.9 |
| 20260505040000 | 74 | 176 | 8.7 | 13.0 | 0.00 | 0.00 | 0.00 | 75 | 1002.0 |
| 20260505035456 | 74 | 196 | 7.0 | 13.9 | 0.00 | 0.00 | 0.00 | 75 | 1002.0 |
| 20260505034953 | 74 | 195 | 6.1 | 15.6 | 0.00 | 0.00 | 0.00 | 75 | 1001.9 |
| 20260505034450 | 74 | 204 | 10.4 | 14.8 | 0.00 | 0.00 | 0.00 | 74 | 1002.2 |
| 20260505033947 | 74 | 206 | 10.4 | 14.8 | 0.00 | 0.00 | 0.00 | 74 | 1001.7 |
| 20260505033443 | 74 | 203 | 10.4 | 15.6 | 0.00 | 0.00 | 0.00 | 74 | 1001.9 |
| 20260505032942 | 74 | 204 | 6.1 | 8.7 | 0.00 | 0.00 | 0.00 | 73 | 1001.9 |
| 20260505032439 | 74 | 219 | 11.3 | 15.6 | 0.00 | 0.00 | 0.00 | 73 | 1002.1 |
| 20260505031935 | 75 | 174 | 7.8 | 14.8 | 0.00 | 0.00 | 0.00 | 73 | 1001.9 |
| 20260505031432 | 75 | 210 | 7.8 | 8.7 | 0.00 | 0.00 | 0.00 | 73 | 1001.7 |
| 20260505030929 | 75 | 221 | 12.2 | 15.6 | 0.00 | 0.00 | 0.00 | 72 | 1001.7 |
| 20260505030425 | 75 | 208 | 8.7 | 12.2 | 0.00 | 0.00 | 0.00 | 71 | 1001.6 |
| 20260505025920 | 75 | 202 | 8.7 | 17.4 | 0.00 | 0.00 | 0.00 | 70 | 1001.6 |
| 20260505025418 | 75 | 229 | 10.4 | 15.6 | 0.00 | 0.00 | 0.00 | 70 | 1001.5 |